Weather in Buksunda

Russia / Magadan District     62°26′31″N   156°41′14″E
temp.,
°C
wind,
m/s
gust,
m/s
humid.,
%
clouds,
%
prec.,
mm/h
press.,
hPa
HPBL,
m
18 october, mon
mon1823:00−17n348968 0.1 1019192
02:00−18nne238925 0.0 1017139
05:00−19n349167 0.0 1015138
08:00−19nnw3391100 0.0 1013167
11:00−18nnw4684100 0.0 1009378
14:00−16nnw6981100 0.0 1005499
17:00−17nnw61087100 0.0 1004505
20:00−17nw71290100 0.1 1004645
19 october, tue
tue1923:00−18nw81290100 0.2 1004700
02:00−18nw81290100 0.1 1005794
05:00−18nw61191100 0.3 1006865
08:00−18nw5109299 0.1 1006837
11:00−17nnw81182100 0.3 1006930
14:00−16nnw71078100 0.1 10051044
17:00−17nnw61187100 0.3 1006899
20:00−17nw71192100 0.2 1007825
20 october, wed
wed2023:00−17nw71192100 0.4 1008823
02:00−17nw71193100 0.3 1008854
05:00−17nw71192100 0.6 1010833
08:00−17nw61092100 0.3 1011779
11:00−16nw7986100 0.5 1011882
14:00−15nnw6983100 0.3 1011912
17:00−16nw5991100 0.4 1011779
20:00−16nw5893100 0.3 1011669
21 october, thu
thu2123:00−17nw479492 0.4 1011528
02:00−18nw3694100 0.1 1011461
05:00−19nnw349799 0.1 1012191
08:00−21nnw349799 0.0 1013118
11:00−19nnw359195 0.1 1012304
14:00−18nnw3586100 0.0 1011456
17:00−20nnw339790 0.0 101269
20:00−21n239686 0.0 101371
22 october, fri
fri2223:00−22n239794 0.1 101371
02:00−23n229784 0.0 101358
05:00−23n229761 0.0 101339
08:00−24n119725 0.0 101331
11:00−20nw229018 0.0 1011149
14:00−18nw22865 0.0 1009175
17:00−21nnw119813 0.0 101110
20:00−23nne119815 0.0 101110